EW0387 Weather Reports


Display with metric or nautical units.
time (UTC)temp
F
wind
direction
speed
MPH
gust
MPH
rain 1hr
in
rain 24hr
in
rain mn
in
humidity
%
barometer
mb
20260510234505 70 73 3.0 0.0 0.00 0.00 0.00 35 1002.5
20260510233004 69 65 5.0 0.0 0.00 0.00 0.00 35 1002.5
20260510231504 72 59 4.0 0.0 0.00 0.00 0.00 33 1002.2
20260510230007 72 325 4.0 0.0 0.00 0.00 0.00 33 1002.5
20260510224503 72 17 2.0 0.0 0.00 0.00 0.00 33 1002.5
20260510223002 69 13 3.0 0.0 0.00 0.00 0.00 35 1002.9
20260510221601 72 123 3.0 0.0 0.00 0.00 0.00 32 1002.5
20260510220100 69 86 3.0 0.0 0.00 0.00 0.00 35 1003.7
20260510214559 72 77 3.0 0.0 0.00 0.00 0.00 33 1003.4
20260510213058 74 317 3.0 0.0 0.00 0.00 0.00 33 1003.2
20260510211559 75 316 2.0 0.0 0.00 0.00 0.00 32 1003.3
20260510210057 72 26 3.0 0.0 0.00 0.00 0.00 34 1003.6
20260510204553 70 94 3.0 0.0 0.00 0.00 0.00 34 1004.1
20260510203051 73 79 3.0 0.0 0.00 0.00 0.00 32 1003.4
20260510201549 73 60 3.0 0.0 0.00 0.00 0.00 34 1003.7
20260510200046 70 287 2.0 0.0 0.00 0.00 0.00 37 1005.6
20260510194544 69 71 3.0 0.0 0.00 0.00 0.00 38 1005.8
20260510013020 56 274 9.0 0.0 0.00 0.00 0.00 62 1004.2
20260510011519 57 358 14.0 0.0 0.00 0.00 0.00 60 1002.7
20260510010019 61 347 16.0 0.0 0.00 0.00 0.00 53 1001.0
20260510004517 75 2 4.0 0.0 0.00 0.00 0.00 26 996.7
20260510003019 75 6 3.0 0.0 0.00 0.00 0.00 26 996.2
20260510001516 73 25 2.0 0.0 0.00 0.00 0.00 27 996.2
20260510000016 73 43 3.0 0.0 0.00 0.00 0.00 27 996.0